Wind_Gust
10 20 20 24 15 13 13 14 14 17 19 17 17 16 17 18 22 21 18 15 11 17 21 24 22 20 20 13 12 15 15 16 17 18 18 18 19 21 21 21 30 27 25 24 26 27 27 23 24 20 21 20 18 18 18 19 18 16 18 16 16 15 14 14 14 13 12 10 10 8 7 11 10 11 10 10 10 10 12 12 11 9 10 9 8 8
16 20 23 15 14 10 13 12 12 14 13 17 18 19 21 16 22 15 18 13 13 17 22 23 16 19 20 17 15 14 16 20 20 19 19 20 20 19 19 19 21 28 28 26 23 25 24 25 21 19 21 19 21 19 19 19 19 17 16 16 16 16 15 13 11 10 7 7 8 10 11 10 12 15 14 13 12 11 11 10 10 10 10 9 7 7
22 24 16 12 11 9 9 9 10 13 14 15 21 20 23 20 15 21 16 14 13 15 23 19 22 23 26 21 16 17 18 20 19 20 21 21 21 20 19 17 17 29 27 29 26 25 27 24 23 21 18 19 19 19 19 18 18 18 17 16 16 16 15 13 12 11 10 7 8 6 11 7 13 14 14 14 13 11 13 9 9 9 8 7 9 8
22 29 17 13 10 8 12 13 12 14 17 20 20 24 21 20 25 22 14 14 12 20 19 20 19 18 21 18 17 16 19 18 16 18 19 19 19 19 18 17 17 19 24 25 27 30 27 26 24 22 21 20 20 20 19 19 20 20 19 17 17 16 15 15 13 10 11 9 9 9 9 9 9 14 12 11 11 11 11 12 11 11 8 8 8 9
18 24 17 11 9 12 14 14 15 19 21 19 19 21 23 19 16 23 13 11 8 14 15 20 22 26 25 26 27 23 20 16 16 18 18 18 19 17 15 16 16 19 22 23 22 23 25 28 27 26 24 23 22 21 21 21 21 19 19 18 18 17 16 15 15 12 12 13 12 12 11 11 14 12 12 12 13 11 11 11 10 11 10 9 10 10
20 15 14 11 13 14 15 16 19 18 22 19 18 18 18 18 11 15 11 16 22 21 23 19 28 28 26 30 28 19 19 20 19 22 23 22 21 19 18 17 16 15 16 23 26 23 25 28 27 25 24 24 24 24 21 20 21 19 20 19 18 17 17 17 17 14 14 14 13 14 14 14 14 14 13 12 12 12 11 14 11 12 11 11 10 10
21 12 11 11 14 15 16 20 16 17 22 20 18 17 16 18 14 15 17 16 22 25 16 14 24 26 17 15 16 16 20 20 20 20 22 23 23 22 20 19 18 17 18 18 21 27 25 24 26 27 27 27 26 25 22 21 21 21 21 19 19 19 18 18 18 16 15 14 14 14 13 13 13 14 12 12 11 11 13 11 10 12 10 11 10 10
18 14 14 12 14 18 19 22 19 16 21 21 15 16 14 18 16 16 18 22 23 18 20 19 23 24 25 16 13 13 17 19 19 19 18 21 19 20 19 19 16 17 15 20 22 23 23 22 24 26 26 26 26 23 23 22 22 23 22 20 20 19 19 18 19 18 16 16 15 14 13 13 13 13 14 13 12 11 11 12 11 11 11 10 11 10
14 12 12 17 17 23 23 18 13 14 25 16 11 14 16 18 14 17 20 21 21 17 24 21 23 31 27 19 15 16 19 20 21 19 18 18 17 16 14 14 14 14 13 13 16 19 22 22 23 23 24 24 24 26 26 24 23 22 22 21 20 19 19 20 20 19 18 15 16 16 14 14 13 15 16 15 14 13 12 11 10 9 12 11 10 11
13 13 14 16 19 22 24 15 14 11 22 8 13 15 18 15 15 18 21 22 18 19 21 22 15 26 23 17 18 19 21 22 19 18 15 15 15 15 14 10 9 11 12 14 15 14 15 19 20 21 21 23 26 25 24 23 23 24 23 23 23 21 20 21 21 20 18 16 16 16 14 14 14 15 16 14 15 13 12 12 11 10 10 12 11 10
13 9 11 16 20 22 20 13 11 12 16 13 12 21 20 20 20 18 21 25 22 26 26 21 18 21 26 17 16 17 17 15 19 19 16 12 12 13 10 13 11 11 11 12 12 13 13 13 15 19 22 23 23 23 25 24 25 25 24 24 24 22 21 22 22 20 19 18 16 16 15 14 14 14 14 15 15 15 13 13 12 11 11 11 12 11
17 17 18 21 18 20 16 18 13 13 15 16 22 21 20 22 18 22 22 17 22 25 21 18 18 16 24 19 18 15 13 10 12 16 14 12 12 11 9 11 11 11 11 12 13 13 12 13 15 16 19 21 23 23 25 24 24 25 25 25 25 23 21 22 22 21 21 19 17 15 15 16 15 15 15 15 15 15 14 13 13 12 12 12 12 11
19 22 19 17 12 15 18 22 21 18 19 22 22 24 19 20 19 23 24 23 24 23 14 13 14 17 24 21 10 13 14 13 11 10 11 12 10 10 11 12 12 13 12 12 12 12 12 13 15 18 20 20 21 23 23 23 22 24 24 26 26 25 23 23 22 22 21 19 18 17 17 16 16 16 15 16 15 15 16 16 14 13 13 14 13 13
20 21 19 15 15 19 19 25 21 21 21 22 25 20 21 23 21 22 23 22 24 23 12 15 11 22 16 13 13 16 13 12 12 11 10 11 10 11 12 11 12 12 14 13 13 14 12 10 13 15 17 20 21 21 24 22 21 22 22 24 26 25 23 21 21 22 21 20 18 18 17 17 18 17 16 16 17 16 15 15 14 14 13 14 13 14
17 18 22 17 18 16 20 23 19 13 18 25 21 24 20 22 24 22 24 20 19 14 10 11 12 19 21 12 11 14 13 13 14 15 14 10 10 9 11 13 13 14 14 15 15 14 12 9 8 11 14 17 19 19 21 21 21 21 21 23 24 24 24 22 22 21 22 21 19 18 18 18 17 18 18 18 16 17 15 14 15 14 13 13 14 16
19 24 16 12 13 14 15 15 18 19 19 19 19 21 23 21 15 28 17 20 19 17 15 18 17 12 18 19 14 14 16 15 15 14 14 13 11 11 12 14 15 15 16 16 15 14 12 10 8 9 11 13 14 16 17 17 18 18 19 20 23 23 23 22 21 21 22 21 20 18 18 18 17 17 17 17 17 17 16 14 15 15 13 13 14 15
14 20 22 15 13 15 16 11 16 15 22 11 19 24 22 15 19 19 16 16 6 19 30 20 18 26 18 22 18 17 16 17 16 16 16 15 15 13 13 15 15 17 18 17 17 16 12 12 11 11 12 12 12 14 14 14 15 16 16 18 20 21 20 21 20 19 20 20 19 19 19 18 17 17 16 17 15 15 16 16 15 15 14 13 14 15
22 16 12 12 17 15 10 13 17 16 23 22 20 17 19 17 18 21 22 11 17 24 22 17 18 23 21 20 24 20 19 19 18 18 17 14 14 14 15 14 16 17 17 17 17 16 16 16 14 13 13 13 13 12 13 13 12 14 14 16 18 19 19 19 19 19 18 19 18 18 19 19 18 17 16 14 14 15 16 16 17 15 16 15 15 17
14 24 22 22 19 17 12 14 22 22 18 25 24 17 15 14 17 19 21 21 22 24 25 20 21 23 21 18 20 20 20 20 18 17 18 17 15 15 15 17 16 16 16 17 17 16 17 16 15 14 14 18 17 15 15 14 11 11 12 13 14 16 16 16 17 16 17 17 17 17 17 17 18 17 16 16 16 16 17 17 17 17 17 17 17 18
12 21 23 14 17 14 14 20 25 21 23 23 22 29 22 25 23 21 20 22 24 23 21 20 23 23 17 17 16 18 19 19 18 19 17 16 16 15 16 16 17 17 16 18 18 18 17 16 17 17 16 19 18 17 17 15 13 13 11 11 12 13 14 14 14 14 15 16 16 14 15 15 20 18 18 17 18 19 19 19 17 17 17 18 19 19
19 12 21 17 14 13 24 23 25 24 19 22 24 25 25 26 18 25 25 27 25 24 24 25 26 22 14 15 12 13 19 19 19 19 18 17 16 17 17 17 18 18 17 17 18 18 18 17 16 17 19 20 19 17 16 16 15 14 13 12 12 11 10 11 12 12 12 12 13 14 19 17 18 18 18 18 19 19 19 18 18 18 18 19 20 20
17 14 19 24 26 23 16 13 17 15 14 18 17 17 21 21 24 25 27 24 30 30 28 24 31 22 14 9 10 16 15 19 20 19 19 18 18 18 18 17 18 18 17 17 17 17 18 18 18 19 20 19 19 20 19 19 18 17 15 14 13 13 12 11 11 12 11 12 15 17 17 19 18 19 20 19 19 20 20 17 19 18 19 19 20 20
16 18 20 20 24 25 22 13 13 14 16 23 23 24 22 20 22 26 28 21 23 28 24 26 25 17 17 11 13 15 16 18 17 19 19 20 19 19 20 19 18 18 18 17 17 18 18 18 19 22 23 23 22 20 19 17 18 20 18 19 17 14 12 11 9 9 11 12 12 14 13 14 15 16 17 20 20 21 22 19 16 20 19 21 21 21
7 15 21 28 26 28 30 28 16 14 17 22 25 26 26 28 23 27 30 24 23 20 24 22 25 21 13 13 13 14 13 15 17 17 20 20 19 20 20 19 19 18 17 16 17 16 16 16 17 19 20 22 21 20 20 20 20 19 18 17 16 17 16 13 9 7 8 8 9 11 12 16 17 14 14 16 19 20 21 21 19 17 20 18 19 22
10 19 25 22 24 24 22 24 27 17 20 28 29 25 24 26 22 23 24 21 28 29 28 29 33 21 14 10 14 15 16 16 18 18 18 20 18 19 19 18 18 17 17 17 17 17 16 16 17 19 20 20 21 20 18 19 20 19 19 17 18 17 15 15 14 11 7 9 7 6 9 10 13 15 15 17 18 18 17 19 19 19 21 18 18 21
15 18 18 19 19 20 20 20 22 15 17 19 23 28 25 17 22 24 24 26 32 26 27 32 34 18 16 11 12 13 16 17 18 18 17 18 17 19 18 18 17 17 17 17 16 15 15 15 17 17 16 18 18 20 19 18 19 19 19 18 15 16 15 15 14 13 13 10 9 10 9 9 11 11 12 13 17 19 25 24 23 19 16 19 19 21
19 17 21 23 26 27 25 25 15 12 21 22 21 20 21 20 19 21 25 26 32 25 29 28 27 23 19 15 14 14 14 17 17 16 18 19 17 16 16 16 16 16 16 16 15 16 15 15 15 16 15 16 16 16 17 17 18 18 16 16 16 16 15 14 13 13 12 11 10 10 8 8 11 12 12 14 17 17 18 21 18 20 25 23 24 23
18 20 20 22 25 29 29 29 28 27 30 28 25 27 27 26 21 22 22 31 24 28 36 29 23 26 23 19 15 14 14 16 16 16 17 16 17 16 16 14 10 16 15 15 15 16 16 15 15 14 14 13 15 16 16 16 17 16 15 15 15 15 14 13 11 11 11 11 9 9 8 7 7 7 7 10 14 16 18 19 21 22 21 22 24 23
21 21 18 21 25 26 27 29 28 29 28 29 30 28 28 27 27 28 24 27 24 28 35 24 23 24 22 18 17 18 18 18 18 19 18 16 18 17 17 17 17 16 15 15 14 14 14 15 14 13 13 13 13 14 13 15 15 13 13 14 14 13 12 11 11 11 11 10 10 11 11 9 8 7 8 11 12 13 16 18 20 21 22 20 22 23
18 20 22 22 27 28 28 28 26 29 29 30 30 30 30 29 30 30 32 31 33 31 31 31 28 27 30 28 26 22 16 16 19 17 16 18 20 20 19 19 19 17 16 15 15 15 14 14 14 14 13 12 13 13 14 13 12 14 13 12 12 11 11 10 10 11 11 11 11 9 10 11 10 11 10 11 12 13 13 13 14 15 16 18 18 20
14 17 9 18 25 28 26 26 28 29 29 36 32 31 31 30 31 31 32 30 30 33 31 30 27 30 29 21 24 25 22 19 20 21 22 20 20 20 20 20 19 19 18 15 14 14 14 14 13 13 13 12 12 11 12 11 10 11 11 11 11 10 10 12 10 10 10 11 11 11 11 11 10 10 12 12 12 13 14 15 14 15 17 17 19 20
14 21 22 26 26 26 26 27 29 29 30 33 33 31 31 30 26 30 35 27 26 30 28 26 29 29 22 22 25 25 27 27 24 24 24 23 23 23 22 21 19 18 18 17 15 15 14 14 13 12 11 10 10 10 10 11 11 11 11 12 12 13 13 11 10 11 11 12 13 13 13 12 13 13 12 12 13 13 14 14 15 15 15 16 16 18
21 24 23 20 26 29 26 26 26 24 25 30 25 26 31 32 32 34 33 29 30 27 28 30 28 25 26 23 22 23 24 24 22 23 23 22 21 22 23 22 21 18 18 17 16 14 13 12 13 11 9 9 11 10 11 11 10 10 10 10 9 10 10 11 11 12 12 12 13 14 13 14 14 14 13 13 14 13 13 14 15 16 15 15 14 15
21 22 27 23 31 29 26 24 21 21 30 29 14 13 18 24 25 30 31 28 26 29 34 30 28 25 22 19 21 22 22 21 20 19 18 18 18 19 21 21 20 18 17 16 14 13 12 10 10 10 9 9 8 11 11 10 9 9 8 9 10 10 11 13 12 11 12 13 14 14 14 14 14 15 14 14 15 14 15 15 16 14 14 14 14 16
20 21 23 26 31 30 23 21 27 33 37 17 12 11 10 13 13 16 19 21 22 18 19 23 22 23 24 23 24 25 23 20 16 18 16 15 15 17 19 19 18 18 17 15 12 11 10 8 7 7 8 9 10 10 10 10 9 10 11 9 10 11 12 12 13 13 13 14 14 14 14 15 14 15 15 16 16 16 17 16 15 16 16 16 16 17
20 22 24 27 28 28 28 25 33 34 15 13 15 12 10 12 16 15 20 21 13 15 15 21 18 16 16 17 17 19 20 20 19 18 18 17 15 18 20 20 20 18 17 17 14 8 7 8 9 8 8 9 12 12 13 11 11 11 12 12 12 12 13 13 14 15 14 15 15 15 14 14 14 15 15 16 16 17 17 16 16 16 15 16 16 17
22 25 24 27 21 29 24 26 34 23 27 19 19 14 12 15 15 16 20 17 10 12 13 18 16 14 16 17 16 15 16 18 19 13 12 12 12 12 11 13 11 12 13 13 15 15 9 9 12 9 9 10 12 13 13 13 13 13 13 14 14 14 14 15 15 15 15 16 16 15 15 15 15 15 16 17 17 18 17 17 17 16 16 16 17 17
21 23 17 25 26 23 26 28 27 27 30 17 14 13 12 10 10 12 13 23 12 11 12 16 16 18 15 17 17 19 16 20 19 15 13 13 11 10 14 10 8 8 8 8 8 11 11 10 10 11 11 12 14 15 15 13 13 14 15 15 15 16 17 17 17 17 18 18 17 16 16 16 17 17 17 17 19 18 17 17 17 17 16 17 17 18
21 21 21 25 25 20 23 26 28 24 24 15 10 11 10 13 11 12 13 23 17 13 11 17 17 17 15 19 19 16 20 22 19 14 13 10 10 9 9 12 9 8 9 11 11 12 12 11 12 15 16 15 16 15 13 15 15 17 17 17 17 17 18 18 18 18 19 18 18 18 18 18 17 17 18 19 19 18 18 18 19 18 17 18 18 17
21 19 19 25 23 25 23 25 26 24 21 12 12 12 15 10 11 15 18 20 15 10 14 17 18 19 16 18 19 19 21 21 13 13 14 12 15 12 11 13 12 14 14 12 13 12 13 15 18 17 15 16 16 16 17 17 18 17 18 18 18 19 20 19 19 19 20 20 19 18 18 17 17 17 18 18 18 18 19 18 19 18 18 17 18 17
18 21 21 24 23 23 20 29 26 26 19 13 12 10 10 9 11 20 29 16 12 13 14 15 16 16 18 20 19 22 19 18 17 10 9 13 18 18 15 14 17 18 17 16 17 12 18 19 19 19 18 19 19 18 18 18 18 19 19 19 20 21 20 20 20 21 21 21 20 21 21 20 18 18 18 19 19 18 18 19 18 18 18 18 17 17
16 14 18 17 22 23 22 26 28 16 13 16 10 12 11 9 18 21 21 15 18 18 18 19 18 18 18 20 21 23 22 22 20 20 21 20 21 20 20 21 21 20 19 20 17 19 20 21 20 20 20 19 20 19 19 19 20 20 20 20 21 20 21 21 22 22 22 22 22 22 21 20 19 18 18 18 19 19 19 18 19 19 19 18 15 8
17 12 17 21 20 23 23 27 23 26 11 13 14 14 8 11 13 19 19 17 17 20 21 20 21 20 20 23 22 23 25 25 23 23 23 23 23 23 22 23 23 23 22 21 21 21 22 23 23 23 21 22 21 21 21 19 21 22 21 23 22 22 23 23 23 23 23 23 23 22 21 21 20 20 18 18 18 19 20 18 19 17 13 9 12 11
10 17 22 21 21 25 23 25 21 13 8 10 15 11 10 16 21 23 24 26 22 22 22 23 22 21 21 23 25 25 26 26 26 24 25 25 25 25 25 24 24 24 23 23 25 25 24 27 26 25 23 23 22 22 22 22 24 24 24 24 22 22 22 23 24 24 24 23 23 23 23 22 22 21 20 20 20 21 20 20 18 16 11 11 14 17
13 22 16 19 12 12 20 20 16 15 18 17 18 17 17 18 19 20 22 25 27 26 22 25 23 23 23 25 25 26 29 27 28 27 28 27 28 28 29 29 28 28 26 26 27 26 26 29 28 28 26 25 23 23 24 24 26 25 26 25 23 25 24 25 25 25 25 25 24 24 23 23 23 22 21 20 20 20 20 17 12 11 13 13 15 18
12 12 12 16 23 22 27 27 27 27 24 21 17 18 21 22 23 25 25 27 24 24 24 28 26 27 27 27 31 30 30 29 29 30 30 30 31 32 32 33 33 31 31 30 29 29 29 28 28 28 29 28 27 28 26 26 26 28 28 26 26 26 26 26 25 25 26 25 25 25 25 25 25 24 23 21 21 19 16 10 12 14 15 17 19 20
15 17 12 16 16 20 29 14 17 15 14 18 23 24 24 23 25 24 24 24 23 24 27 26 29 29 29 31 31 32 32 32 33 32 32 33 33 32 33 33 33 32 31 32 29 28 30 27 29 28 27 27 25 27 27 26 28 29 27 27 27 27 27 26 26 26 26 27 27 26 26 26 26 25 23 20 18 17 14 14 12 14 16 18 19 21
10 14 15 20 21 23 26 22 23 24 25 24 26 24 24 23 23 22 23 23 25 27 28 29 29 32 31 33 32 33 34 32 32 32 32 33 33 33 33 33 32 31 30 30 30 30 30 30 30 30 29 30 29 28 28 28 29 29 29 28 28 28 29 27 26 28 28 27 26 26 25 26 13 19 23 19 14 14 13 12 12 15 17 18 17 20
20 14 22 17 24 24 22 23 25 23 23 22 21 22 23 26 27 27 28 29 30 31 32 32 32 33 33 34 34 35 36 36 34 33 34 34 33 32 31 31 30 31 31 31 30 28 31 29 31 30 30 31 31 30 29 29 29 30 29 29 28 28 29 29 25 27 26 27 27 26 24 24 23 21 19 15 15 13 10 9 16 16 15 11 14 18
21 25 17 17 21 21 20 21 20 27 27 25 25 26 27 27 28 29 29 30 30 30 29 29 28 26 29 29 31 34 35 34 33 33 34 35 32 30 31 32 31 30 30 30 31 29 30 29 30 30 32 32 30 29 29 28 29 27 28 27 27 28 28 27 27 26 27 28 28 27 24 22 22 18 16 16 16 16 16 16 17 9 17 16 17 18
17 18 18 20 21 23 22 25 25 26 28 29 29 28 29 29 29 29 28 28 28 27 27 29 30 30 29 29 28 30 30 32 31 31 32 31 31 30 31 30 31 31 31 29 29 28 28 30 31 31 32 32 30 31 30 30 30 29 29 28 28 27 26 26 26 26 26 26 26 24 22 16 17 19 16 18 19 19 20 17 19 20 18 12 13 16
Wind_Speed
2 7 7 10 2 3 6 7 6 9 11 9 8 7 7 6 9 11 10 6 3 7 8 12 13 10 11 5 5 7 7 8 9 10 9 8 9 10 10 11 18 17 12 11 11 14 16 13 13 11 12 11 11 10 11 11 10 9 9 9 8 7 7 6 5 5 4 4 4 2 2 4 3 4 3 3 4 4 4 5 4 4 3 2 3 2
5 8 10 4 6 4 7 6 6 7 7 8 9 9 9 6 9 4 7 6 4 8 8 13 7 8 10 8 7 5 8 11 11 11 11 10 10 9 10 10 10 14 13 14 13 16 15 12 13 10 11 12 12 11 11 11 11 10 9 9 8 8 7 6 5 4 1 2 2 3 4 3 4 6 5 4 4 3 3 3 4 4 4 3 1 2
8 10 5 4 5 3 4 4 4 6 7 7 9 9 9 7 6 11 7 5 3 6 9 8 10 11 14 12 8 8 9 10 10 10 11 12 12 10 9 9 8 16 12 14 14 13 15 15 14 11 10 10 11 11 11 11 11 10 9 8 8 7 7 6 5 4 4 2 3 1 4 1 5 6 6 5 5 4 5 3 3 4 2 2 2 2
9 12 9 6 4 1 5 7 6 7 8 8 8 10 8 8 11 8 6 5 5 6 8 10 9 4 10 9 9 8 9 9 9 10 11 11 10 10 9 9 8 12 13 15 16 19 17 15 14 12 11 10 11 11 11 11 11 10 9 9 9 8 7 7 6 4 5 4 4 4 4 4 4 5 5 5 4 5 4 5 4 4 2 3 3 2
3 11 9 5 1 4 7 7 8 8 8 9 10 9 9 10 6 9 3 3 1 7 8 11 9 8 11 13 12 12 11 8 8 8 9 9 10 9 8 8 8 10 13 13 13 13 14 15 15 14 13 11 11 11 11 11 11 8 11 10 10 9 8 8 8 6 6 6 5 5 5 5 6 5 5 5 5 4 4 4 4 4 3 3 4 3
8 7 8 2 4 6 8 7 9 8 9 8 11 10 9 11 5 7 5 7 8 8 10 10 9 10 12 17 15 8 8 9 9 11 12 11 11 10 10 9 7 7 9 13 12 12 13 15 15 15 15 14 13 12 11 11 11 10 11 11 10 9 8 9 10 8 7 6 5 6 6 6 5 5 5 5 5 4 3 5 4 4 4 4 3 3
7 3 2 2 6 8 8 9 8 9 9 9 5 10 9 10 7 8 9 6 8 9 3 5 9 7 7 5 7 7 10 11 10 11 12 12 12 11 10 10 9 9 7 6 10 10 13 14 15 15 15 15 14 13 12 11 12 12 12 11 11 10 9 9 10 10 7 7 6 7 6 5 5 6 5 5 4 4 5 4 4 4 3 3 4 4
7 6 4 5 6 8 9 9 9 8 8 7 6 7 6 9 9 8 10 10 8 9 10 10 8 9 9 6 5 5 8 10 10 9 10 10 10 10 11 10 9 8 8 11 11 12 13 13 13 15 15 14 14 13 13 12 12 14 13 12 12 9 10 9 10 10 8 8 7 7 6 6 6 6 6 6 5 5 5 5 4 4 3 3 3 3
6 5 6 8 9 9 9 8 2 6 8 0 3 7 8 9 7 8 9 9 9 7 9 8 10 11 10 7 7 6 9 10 10 10 9 9 9 8 5 6 6 7 6 6 8 11 13 13 14 13 14 14 14 14 14 13 12 12 13 13 12 11 10 11 12 11 10 8 8 7 6 7 5 7 7 6 5 5 5 5 3 3 4 4 3 4
5 6 7 9 8 9 11 6 6 5 8 2 6 6 8 7 7 9 9 9 7 7 9 10 7 9 9 6 6 9 9 10 9 9 7 7 7 7 6 3 1 2 4 5 6 6 9 12 11 12 12 13 13 13 14 13 13 13 13 13 14 12 10 11 13 11 11 9 8 8 7 8 7 7 6 6 6 6 5 5 4 4 3 4 4 3
4 2 4 6 8 10 10 5 4 3 8 5 5 10 9 9 8 7 8 9 8 10 11 12 10 9 8 7 6 6 6 6 8 8 6 5 4 4 2 5 4 3 1 3 3 4 4 5 7 10 13 13 13 13 14 13 14 13 14 14 15 14 11 12 13 12 12 10 8 8 8 8 8 8 7 7 7 6 6 6 5 4 4 3 4 3
8 8 8 7 9 9 7 8 5 6 7 8 8 8 7 9 7 8 8 7 7 8 10 10 9 8 10 7 6 5 4 1 3 8 6 5 4 3 2 2 1 2 3 3 3 3 2 4 6 7 11 13 14 13 14 13 13 14 14 14 16 14 13 13 12 13 12 10 9 8 9 9 8 8 7 8 8 7 7 6 6 5 4 4 4 4
8 9 9 9 5 8 7 10 9 8 9 9 10 10 7 5 4 7 7 8 8 7 4 3 7 7 10 9 2 6 6 5 4 1 4 4 1 1 0 2 2 4 3 3 3 3 3 4 6 9 10 11 13 13 14 13 12 13 14 16 16 16 14 13 13 13 13 11 10 9 9 9 8 9 8 8 8 8 7 7 6 6 5 5 5 4
8 11 11 6 6 8 9 9 7 8 8 10 10 6 7 7 7 9 9 5 8 10 3 5 3 8 5 3 5 7 5 5 5 3 3 3 3 1 2 2 4 4 5 4 5 6 5 3 3 7 8 10 10 13 13 12 11 11 12 15 16 15 14 13 13 13 13 12 10 10 9 9 8 9 8 8 8 8 6 6 6 6 5 5 5 5
6 7 9 7 6 7 9 10 8 4 7 10 9 9 7 8 6 8 7 7 7 5 3 2 2 4 11 3 3 6 5 5 6 6 6 4 4 2 3 4 5 5 6 5 6 6 4 2 0 3 5 8 9 11 11 11 11 11 11 13 15 15 14 13 13 12 13 11 11 10 9 9 8 9 8 8 7 8 7 7 7 6 6 6 6 7
9 9 5 5 5 5 7 7 8 10 8 6 7 8 9 7 5 9 6 7 7 5 4 7 4 2 2 8 4 4 7 7 7 7 7 6 3 4 4 4 5 6 6 6 6 6 5 3 2 2 4 6 7 9 9 9 9 10 10 12 14 14 14 13 13 12 12 12 10 11 11 10 9 8 8 8 7 8 7 7 7 7 6 5 6 7
4 6 11 7 6 6 7 2 7 5 8 2 6 9 7 6 8 5 6 8 3 6 10 6 5 9 6 9 9 8 7 8 8 8 8 7 7 6 5 5 6 7 7 7 7 7 5 5 3 4 3 4 5 6 7 8 8 8 8 10 12 13 12 12 12 11 11 11 11 11 11 10 9 9 9 8 8 8 8 8 7 7 7 6 6 7
9 5 4 4 8 7 3 5 8 6 9 7 7 4 9 8 6 5 7 3 5 8 6 6 8 9 8 4 10 10 10 9 8 9 8 6 7 7 6 6 7 8 8 8 8 8 8 7 6 5 5 6 6 6 7 7 6 7 6 8 10 11 11 11 11 10 10 11 10 10 11 10 9 9 8 7 7 7 8 8 7 7 8 8 7 7
2 8 9 13 11 8 4 6 11 12 9 11 10 4 5 2 6 6 4 8 8 8 7 7 11 10 7 6 8 11 10 9 9 8 9 8 7 7 7 8 8 8 7 7 8 7 7 7 7 6 6 7 7 8 8 7 5 5 5 7 7 9 9 9 8 9 8 9 7 7 9 10 9 9 8 8 6 6 6 8 8 8 8 8 9 9
3 7 8 3 4 2 4 6 9 9 12 14 11 13 9 9 8 7 4 7 7 8 7 8 11 7 5 6 8 6 7 10 9 8 8 8 7 6 7 7 8 8 7 8 8 8 7 8 8 8 7 7 7 9 9 8 7 7 4 5 6 6 7 7 8 8 7 8 7 7 7 8 9 10 9 8 8 8 8 7 8 8 9 9 9 9
5 3 7 6 5 3 8 7 10 10 8 8 9 9 8 8 6 8 7 9 8 7 8 7 8 6 2 6 3 6 10 10 9 9 8 7 7 8 8 8 8 9 8 8 8 8 9 8 8 8 8 8 8 8 8 8 8 7 6 6 5 5 5 5 5 5 5 5 6 6 6 6 7 9 8 9 9 8 9 7 7 8 8 8 9 9
4 4 7 8 10 9 6 2 7 7 5 6 5 6 7 6 8 10 9 7 11 9 8 8 9 7 4 2 1 6 3 8 9 9 9 9 9 9 9 9 9 9 9 9 8 9 9 9 9 9 9 9 9 10 11 10 8 8 8 7 5 6 4 4 4 4 4 4 3 3 5 7 8 7 7 8 8 9 8 7 8 5 8 9 8 9
5 5 6 7 9 10 12 3 4 7 8 12 10 9 9 7 7 8 11 6 8 10 11 11 9 3 2 3 4 6 4 7 8 8 8 9 9 10 10 10 10 10 9 9 9 9 9 9 10 10 11 11 11 10 10 9 9 9 11 11 10 6 5 5 3 3 4 4 5 6 4 4 7 8 9 9 8 9 9 7 7 8 8 8 8 9
3 3 6 11 12 14 17 17 7 4 8 11 12 12 12 12 10 11 11 9 8 8 8 7 8 1 4 4 2 2 3 4 4 7 9 9 8 10 11 11 10 10 9 9 8 8 7 8 8 9 10 10 10 10 10 10 9 9 9 9 7 7 8 6 4 1 2 3 4 5 5 6 6 8 8 7 7 8 10 10 8 7 8 10 7 10
3 6 10 8 8 8 10 11 12 7 7 9 10 11 12 13 12 11 11 9 10 12 13 10 11 5 5 2 3 4 6 7 8 9 10 10 8 9 10 9 9 9 9 9 9 9 8 8 8 8 9 10 10 10 9 9 9 9 9 9 9 8 6 6 6 4 2 3 2 1 4 5 5 5 6 5 4 2 3 7 9 8 8 8 8 7
4 6 6 7 7 8 7 7 7 5 5 5 8 13 15 8 9 10 9 9 11 12 15 11 11 1 5 2 3 4 6 7 8 9 9 8 9 9 8 8 8 8 8 9 8 8 8 7 7 8 7 8 9 9 9 9 9 9 9 9 7 8 7 7 6 6 6 3 2 3 3 4 6 6 7 7 6 6 9 11 9 9 6 7 8 8
6 6 9 9 10 10 10 11 7 5 9 9 11 12 6 9 10 11 10 10 11 10 12 14 13 10 7 6 5 5 5 7 7 8 8 8 8 7 7 7 7 7 8 8 8 7 7 8 8 8 7 7 8 8 8 8 8 8 8 8 8 7 7 6 5 6 5 4 3 2 2 3 3 4 3 3 4 4 6 7 8 6 8 10 11 10
6 7 10 13 15 15 17 18 17 15 15 15 13 13 16 16 12 12 9 11 12 12 15 12 14 13 12 10 5 5 4 6 5 5 7 7 8 7 7 6 7 7 7 6 7 8 8 8 7 7 7 6 7 7 7 7 7 7 7 7 7 7 6 4 5 5 4 3 2 2 1 1 1 1 2 3 5 5 6 8 10 10 11 12 12 13
8 8 10 12 14 15 15 17 17 16 16 16 18 16 17 17 17 16 13 17 14 11 15 14 15 14 11 9 9 9 9 9 9 8 10 7 7 8 8 8 8 8 7 7 7 7 7 7 7 6 6 6 6 6 6 6 7 6 6 6 6 5 5 4 4 3 2 2 1 2 2 2 1 1 2 3 3 3 5 7 8 9 11 11 9 8
4 7 12 12 15 15 16 17 16 17 16 17 18 19 18 19 19 19 20 19 20 19 19 18 18 17 16 15 15 13 8 8 8 8 7 9 10 11 10 9 9 8 7 7 7 7 7 7 7 7 6 5 6 5 6 4 4 5 5 5 4 4 3 3 2 2 2 2 2 1 2 3 3 3 3 3 4 4 5 5 6 7 8 8 9 8
3 4 1 8 11 13 15 15 15 16 17 19 19 20 20 18 19 19 19 19 19 20 20 20 16 16 14 12 12 12 12 9 9 10 12 11 10 11 10 10 10 9 9 7 7 7 7 7 6 6 6 6 5 4 4 3 3 4 4 4 3 3 2 3 2 2 2 2 2 3 3 3 2 3 4 4 4 5 5 6 5 6 6 7 8 9
4 7 11 11 11 12 13 15 17 17 19 20 20 20 19 19 15 17 14 14 14 16 17 16 15 12 10 11 13 14 15 16 13 13 13 11 13 13 13 12 10 9 9 8 7 7 7 7 6 5 4 4 3 4 3 2 1 4 2 3 2 3 3 2 1 2 2 3 3 4 4 3 4 4 4 4 5 5 5 6 6 6 7 7 8 8
7 8 8 7 11 12 13 15 16 15 13 13 12 13 17 19 19 19 19 18 17 16 14 15 13 11 12 13 12 13 14 14 13 12 13 13 11 12 13 11 11 9 8 9 8 7 5 5 6 5 3 1 3 1 3 2 1 2 2 2 1 1 2 2 2 3 3 3 4 4 4 5 5 5 5 5 6 6 5 6 6 7 7 8 7 7
9 10 9 9 11 11 14 13 12 9 14 10 3 5 9 13 14 18 17 17 17 15 13 14 14 11 11 9 8 12 13 11 8 9 9 8 8 9 10 12 11 9 8 8 6 5 5 3 3 3 3 1 1 3 3 2 1 1 1 1 0 1 2 3 3 3 3 4 4 4 4 5 5 5 5 6 6 6 6 7 7 6 6 7 7 7
10 9 9 9 10 12 11 11 11 15 15 9 5 5 3 6 6 9 10 11 12 11 11 13 12 12 14 12 12 14 13 11 8 9 8 7 6 7 9 10 9 9 9 7 5 4 3 2 1 1 0 1 2 2 2 2 0 1 2 1 2 2 3 4 4 4 4 5 5 5 5 5 5 5 6 6 7 7 8 8 7 7 7 7 7 8
8 9 9 9 10 10 10 9 12 12 6 6 8 5 4 2 7 7 10 12 7 6 8 11 10 8 7 9 8 9 11 11 10 9 9 8 7 8 10 10 9 7 8 8 6 2 1 1 1 1 1 2 4 3 3 2 2 3 3 3 3 4 4 4 5 6 5 5 6 6 5 5 5 6 6 7 7 7 8 8 7 8 7 7 7 8
12 10 9 10 8 11 9 11 14 12 13 10 8 4 3 4 6 6 9 8 2 5 5 8 8 7 6 9 8 7 7 9 9 4 5 5 5 5 3 5 4 3 4 6 8 8 3 3 5 1 1 3 3 4 4 4 5 4 5 5 5 5 5 5 6 6 5 6 6 6 6 6 6 6 6 7 7 8 8 8 8 8 7 8 8 8
10 11 7 11 8 9 11 11 9 9 11 6 6 6 5 3 3 3 4 10 4 4 2 7 8 10 8 9 8 10 9 9 7 4 4 4 2 3 6 3 0 1 0 2 2 5 4 3 3 3 3 4 5 6 6 6 5 5 6 6 6 6 7 7 7 6 7 7 7 6 6 6 7 7 7 7 8 8 8 8 7 8 7 8 8 8
11 11 10 10 9 8 10 10 9 9 5 7 3 4 4 5 5 5 4 9 5 5 4 8 8 9 6 8 10 8 8 9 6 4 4 1 2 2 2 4 2 1 2 3 4 4 5 3 4 6 7 7 7 6 5 6 7 8 8 8 7 7 7 8 8 8 8 8 8 8 8 7 8 7 7 8 8 8 8 8 8 8 8 8 8 8
11 8 8 10 11 10 10 10 10 6 5 4 6 5 7 3 5 6 7 5 6 3 4 6 9 10 8 7 9 9 8 8 3 0 4 5 6 6 4 6 5 6 7 5 5 5 5 6 8 9 8 7 7 7 8 8 8 9 9 9 8 9 9 9 9 9 9 9 9 8 8 8 8 8 8 8 8 8 8 8 8 9 8 8 7 7
6 8 8 11 10 11 12 11 8 6 6 4 3 2 2 3 4 7 12 4 4 4 5 7 7 8 8 10 8 8 8 8 8 4 3 6 8 9 8 6 9 10 9 8 8 7 7 9 9 9 9 8 9 9 9 8 9 10 9 9 9 10 10 9 9 10 10 10 10 10 10 10 9 9 9 9 8 8 8 8 8 8 8 8 8 8
6 4 6 7 10 10 9 11 10 4 2 7 2 4 5 3 6 8 6 4 8 9 8 10 10 9 10 10 9 10 10 11 11 9 11 11 11 11 11 12 12 12 11 11 10 10 10 10 10 11 11 11 10 10 9 9 10 10 10 10 10 10 9 10 10 10 11 11 11 11 11 10 10 9 8 8 8 9 9 8 9 8 9 8 7 1
6 4 6 8 7 8 8 11 8 11 3 6 7 5 1 5 4 7 8 8 7 11 11 11 10 11 11 12 13 13 14 15 13 13 13 13 13 13 13 13 14 14 12 12 12 12 11 11 12 11 12 11 11 11 11 11 12 11 11 12 12 11 11 11 11 11 12 12 12 11 11 11 11 10 8 8 9 9 9 8 8 9 6 3 5 2
3 6 7 6 6 8 8 7 5 2 1 3 6 4 3 5 9 11 11 12 11 11 11 11 11 11 11 12 13 13 14 15 16 14 14 14 15 15 15 14 14 14 13 13 13 14 14 14 14 13 13 12 11 11 11 11 12 12 13 14 11 11 11 11 12 12 12 12 12 12 11 11 11 10 10 10 10 10 10 9 8 8 4 4 4 4
4 8 3 7 3 4 5 7 3 4 8 8 9 8 9 9 10 11 12 12 12 11 12 11 12 13 13 13 15 16 16 15 16 16 16 16 16 17 17 17 17 17 16 16 16 15 15 15 16 14 14 13 13 12 12 12 13 14 15 13 12 13 13 13 13 13 13 13 13 12 11 11 11 11 10 10 10 10 9 9 6 4 2 3 3 5
1 4 5 6 7 10 13 13 14 13 12 11 8 9 11 13 13 13 14 13 12 12 11 12 14 14 15 16 16 16 16 17 17 18 18 17 18 19 19 19 20 19 19 18 18 18 18 17 16 16 16 16 15 15 14 14 14 16 15 14 13 14 13 14 13 13 13 13 12 12 13 13 12 12 12 11 10 10 8 3 3 5 5 5 6 8
5 8 4 5 7 9 9 7 9 8 7 10 12 13 13 12 13 12 13 12 12 13 13 13 15 17 17 18 18 18 19 19 20 19 19 18 19 19 19 20 19 19 19 19 18 17 16 16 16 16 16 16 15 14 14 15 14 15 14 14 14 14 14 14 14 13 13 13 13 13 13 13 12 11 11 11 9 6 3 4 5 5 5 6 8 9
1 6 5 9 11 9 10 11 13 14 14 14 12 12 12 12 13 12 12 12 13 14 15 16 17 18 17 18 19 20 20 19 19 19 18 17 17 17 18 19 19 18 18 18 18 18 18 17 17 17 17 16 15 14 14 15 15 15 15 15 14 14 15 15 14 14 14 14 13 12 12 12 10 10 10 9 4 3 4 4 4 6 6 7 8 9
9 6 8 7 9 10 12 13 13 13 12 12 11 11 12 13 14 15 16 17 17 18 19 19 18 18 18 19 20 20 22 22 21 20 20 18 18 18 17 16 18 18 18 19 18 17 17 17 18 18 18 17 16 15 15 15 15 15 16 16 15 15 16 15 15 15 15 14 13 13 12 11 10 9 9 4 3 5 4 1 5 4 5 5 6 9
9 10 7 7 8 8 8 8 10 10 10 11 14 15 15 16 16 16 16 17 17 17 16 16 16 16 16 16 16 17 19 19 20 20 21 19 19 18 18 18 18 18 18 17 16 17 18 18 18 18 17 16 15 15 15 15 14 14 14 14 14 14 14 14 14 14 14 14 13 13 11 10 9 9 4 5 6 7 7 12 14 5 6 6 12 14
7 8 6 7 8 9 11 14 13 13 14 14 15 16 16 16 16 17 16 16 16 15 15 15 17 17 16 16 15 16 17 16 18 18 19 17 17 16 16 17 17 16 16 16 16 16 16 16 17 17 17 16 16 16 15 15 15 15 15 15 15 15 14 14 13 12 12 12 12 12 10 2 3 5 6 8 8 8 9 7 10 15 11 10 11 14
Wind_Direction
214 240 224 228 260 46 42 352 359 328 333 326 319 310 294 245 209 192 108 81 205 285 250 229 209 251 248 231 231 193 195 226 221 203 209 215 216 214 208 216 161 169 163 164 189 202 197 174 165 156 155 158 158 162 158 161 161 160 160 156 158 154 156 163 168 175 178 167 135 129 135 118 141 100 112 86 53 49 54 22 47 38 57 40 1 345
245 246 242 240 45 38 16 1 328 306 292 286 272 258 251 224 269 254 180 124 152 251 242 241 247 241 264 230 238 210 222 226 218 214 203 216 220 223 224 216 170 142 168 177 199 195 197 169 163 161 159 162 165 168 168 168 165 168 163 162 156 156 163 167 171 158 163 151 140 168 146 139 142 155 162 119 108 78 72 62 45 44 45 36 27 356
222 239 247 61 54 24 274 284 295 273 267 258 259 250 248 239 230 67 84 169 143 241 263 256 208 233 242 235 210 207 221 237 223 216 213 214 214 216 214 216 195 147 167 187 186 200 203 174 165 167 166 170 174 169 175 174 170 171 170 166 160 160 163 159 159 157 148 118 78 325 105 119 91 56 44 84 87 98 98 77 70 56 37 50 82 58
233 231 167 115 72 352 219 240 241 252 259 253 230 244 245 250 234 204 168 218 213 247 263 289 294 240 271 252 217 197 223 229 223 215 215 215 216 219 215 214 216 177 184 172 195 191 201 178 168 174 173 175 177 175 177 178 177 174 177 167 164 157 163 154 154 159 122 108 108 83 92 69 90 102 92 97 98 88 100 81 49 65 49 30 44 66
262 59 79 122 142 225 238 210 229 241 239 222 254 264 252 241 265 293 101 270 105 245 270 271 261 250 235 242 216 207 215 219 207 211 215 205 212 214 220 221 211 214 195 178 184 192 195 186 176 180 180 177 181 181 180 179 180 176 177 169 166 158 162 154 151 152 130 129 132 118 113 105 101 120 139 140 120 115 97 102 97 82 75 72 64 41
248 95 100 173 200 223 248 236 222 258 256 235 211 258 278 294 294 255 172 187 226 229 201 229 249 249 234 228 231 190 186 217 206 208 205 200 202 201 210 217 226 232 220 176 190 202 199 197 186 182 182 184 184 183 181 177 180 175 175 171 166 160 162 156 154 151 148 155 153 152 153 148 153 144 150 143 131 136 130 90 104 102 78 64 54 53
61 157 195 207 216 232 241 257 234 210 258 261 234 203 241 270 243 243 252 237 251 259 148 187 257 268 266 224 201 198 195 212 206 208 202 197 194 198 203 202 203 211 205 237 180 209 219 207 199 188 187 187 186 185 176 174 177 177 174 172 169 163 163 157 156 155 160 161 166 169 165 160 157 146 132 109 120 107 102 109 93 95 97 87 69 54
180 117 197 207 232 242 242 235 224 214 253 259 41 172 241 239 237 240 256 250 264 285 151 203 245 269 259 229 208 210 201 208 194 197 211 202 195 204 201 207 205 202 191 200 202 207 233 224 208 200 193 188 186 181 177 175 176 176 175 172 172 167 163 159 159 161 168 170 169 177 178 163 166 145 128 134 119 105 108 111 123 117 117 110 92 94
212 162 225 204 228 246 240 248 142 192 246 81 238 291 243 250 235 247 239 246 254 259 261 233 222 243 252 257 176 193 213 221 197 199 198 220 209 200 215 224 201 207 213 213 199 198 212 214 209 205 199 194 186 182 180 176 174 173 174 173 172 170 165 162 163 164 171 179 170 179 181 168 160 136 142 144 135 131 118 126 129 108 99 94 83 80
219 201 202 227 233 231 235 250 136 207 239 271 309 262 266 254 251 238 246 251 254 265 259 254 237 266 258 252 205 182 230 234 222 173 197 209 210 210 192 183 328 253 245 252 252 219 200 215 207 202 200 193 190 186 179 174 171 173 172 175 175 171 170 163 166 166 171 180 174 181 182 173 154 152 153 151 141 136 145 132 131 128 133 118 120 115
81 152 327 250 233 250 289 30 294 268 257 317 275 257 231 243 233 236 247 258 249 234 235 239 238 233 260 243 239 213 201 263 200 175 190 197 190 183 109 241 230 248 267 276 278 261 245 217 225 201 198 193 189 185 181 175 172 173 174 176 178 174 171 164 168 168 171 179 180 182 179 176 158 157 158 148 156 151 159 149 152 161 137 142 118 115
184 186 206 210 243 275 280 265 229 253 273 254 236 237 234 228 233 238 243 238 260 259 253 251 237 213 250 233 231 147 128 27 107 148 159 151 179 80 89 272 350 357 316 318 298 295 297 251 216 212 199 192 188 187 185 177 173 176 177 177 176 176 173 167 170 171 171 178 183 182 179 177 165 161 168 159 166 163 165 160 163 158 153 148 135 137
243 213 201 187 183 251 226 251 208 206 220 230 237 236 242 252 230 240 229 232 230 253 264 250 224 215 235 272 107 124 141 139 205 232 169 183 187 86 316 3 9 0 334 335 357 324 309 277 230 208 200 190 185 187 189 180 176 178 179 179 177 176 174 168 172 173 173 177 181 184 180 180 173 173 177 171 172 171 174 168 172 161 167 157 157 155
224 239 203 177 185 200 253 238 194 210 200 229 237 236 240 234 235 246 244 243 243 235 224 239 6 254 297 243 95 143 108 108 135 127 103 111 109 36 2 20 29 18 13 7 13 12 11 327 230 208 202 190 181 183 186 182 179 180 182 182 181 176 175 169 173 173 175 179 182 185 184 182 179 182 181 185 176 178 182 173 171 174 170 165 167 163
263 204 215 197 204 133 236 250 277 236 223 238 252 238 244 269 258 256 257 261 267 299 141 225 188 253 245 62 184 114 151 158 150 150 129 127 126 78 55 29 33 33 36 34 40 28 26 11 306 181 196 198 198 191 189 190 184 181 182 184 183 177 176 173 174 175 177 179 183 185 188 186 188 183 187 193 182 181 188 179 172 186 173 170 172 168
265 273 138 183 89 197 248 232 269 297 287 241 241 271 238 237 235 263 291 298 305 305 266 181 239 254 301 158 131 156 159 157 151 138 151 137 121 99 89 67 55 51 46 40 55 68 58 58 59 141 195 198 192 194 195 186 183 183 183 182 184 182 177 175 175 178 179 180 183 186 189 192 196 190 190 198 190 181 191 184 177 187 183 177 169 167
247 259 112 156 194 236 250 9 251 242 256 19 265 231 251 270 260 269 270 236 178 252 252 271 227 237 132 196 160 185 162 153 171 162 165 148 123 107 87 72 64 54 52 48 54 55 73 93 103 121 140 163 179 183 182 181 175 177 182 181 184 186 177 180 181 179 179 182 184 188 191 195 199 202 200 200 195 185 187 190 184 186 187 181 174 166
286 276 230 276 232 188 277 255 293 238 266 264 242 249 284 273 301 267 271 269 246 255 258 235 252 259 240 247 171 182 204 164 180 186 150 141 142 121 95 83 68 58 58 65 67 60 47 53 78 107 121 139 150 151 159 162 161 161 180 177 180 186 179 181 183 182 181 184 188 189 195 198 201 204 211 213 203 191 191 193 193 189 187 189 182 171
303 271 259 225 241 141 190 256 245 244 239 259 267 3 289 241 234 224 250 253 266 264 270 246 251 259 255 247 158 200 202 184 188 178 161 172 146 117 106 89 75 62 61 69 72 70 66 64 65 75 95 109 118 127 129 125 129 146 177 177 178 180 179 176 181 184 184 188 190 193 196 200 203 206 210 214 215 205 201 208 202 198 192 189 186 180
166 269 265 291 251 255 243 227 252 250 205 228 259 268 247 266 267 272 249 281 273 269 268 271 264 261 231 233 141 205 207 179 185 173 183 163 137 118 101 94 85 71 59 64 70 71 73 67 60 70 83 89 93 95 100 104 110 119 130 138 147 165 177 177 180 181 190 192 194 199 202 204 208 211 212 213 216 213 212 218 228 208 201 195 193 187
275 235 276 277 210 251 253 227 247 245 258 214 229 246 243 237 271 285 271 255 258 267 266 280 270 254 309 51 157 206 204 189 183 195 162 142 127 113 103 95 88 86 74 63 69 80 86 89 89 84 77 70 76 87 94 99 103 106 108 112 123 136 156 172 187 175 183 193 203 206 214 218 219 220 219 220 215 220 226 216 231 236 217 208 206 195
242 246 258 269 264 234 242 311 355 329 335 298 291 275 268 261 248 246 255 252 260 267 271 267 273 285 96 237 258 292 235 183 178 179 149 149 133 117 107 101 104 99 90 83 74 79 85 87 92 97 99 90 70 60 63 60 82 91 95 92 107 127 136 148 161 191 178 178 190 244 245 238 238 235 227 228 225 225 229 213 224 244 256 233 220 218
344 330 282 262 257 260 279 132 268 301 294 279 284 278 286 291 282 271 271 263 277 265 282 278 281 277 356 18 262 240 193 173 171 160 156 144 135 126 117 112 106 105 104 100 97 88 82 83 86 85 85 89 97 102 99 87 83 76 70 58 38 51 85 98 83 143 172 185 187 199 224 271 261 247 238 231 233 234 235 230 216 218 242 242 237 231
125 252 255 258 262 262 263 270 209 205 273 271 255 256 259 262 273 273 272 293 289 290 278 275 263 349 73 51 358 60 161 181 166 183 159 145 141 133 128 126 122 117 112 109 106 103 103 103 98 96 95 93 89 87 89 96 99 98 97 99 95 60 50 66 88 92 97 150 169 185 188 205 233 259 252 242 238 244 253 252 231 222 221 234 216 242
263 200 239 263 271 267 250 226 236 226 250 255 257 254 250 254 265 284 292 291 273 261 269 276 272 266 127 150 124 142 149 167 172 176 165 153 153 144 138 132 127 124 120 116 111 103 99 94 91 89 91 93 93 88 87 90 91 87 84 89 91 91 83 69 55 65 149 166 133 235 189 200 217 225 255 273 278 335 331 292 279 251 223 226 221 222
253 288 290 270 259 258 249 246 256 255 238 289 273 245 246 279 282 278 269 265 263 264 266 261 269 328 126 208 210 186 197 190 184 179 164 165 164 157 145 137 135 130 124 120 110 104 98 95 92 89 89 92 95 103 103 97 88 83 84 84 82 85 85 82 85 81 67 63 165 190 218 222 213 218 217 218 204 186 241 253 251 256 269 250 230 217
277 268 258 260 268 267 277 288 310 306 276 264 290 297 263 251 263 273 281 274 264 280 270 262 269 280 239 191 206 214 205 210 189 197 205 173 166 155 143 146 143 139 141 131 124 118 110 98 94 93 89 87 90 89 88 89 90 87 85 79 78 71 68 61 67 83 89 83 68 82 190 194 230 243 243 253 275 249 237 241 233 199 225 239 238 232
258 263 257 263 262 266 279 285 288 288 281 277 263 262 270 269 265 252 250 266 289 287 269 266 270 269 259 259 201 204 232 254 220 209 213 187 171 163 162 159 149 154 141 138 141 133 123 112 103 93 84 83 83 82 84 77 74 81 79 84 77 72 64 59 49 54 54 58 76 61 36 18 335 273 250 233 222 234 240 245 247 229 231 229 225 233
261 257 256 257 262 268 273 281 281 281 280 281 281 279 273 268 265 265 264 260 261 262 271 287 291 291 295 294 308 271 239 227 247 227 226 210 186 190 184 177 185 179 165 157 135 131 129 121 107 99 99 96 100 92 85 93 96 87 79 69 73 68 68 64 48 52 54 66 37 7 336 343 344 291 270 265 276 251 229 228 233 247 245 245 241 237
282 262 268 265 267 263 258 252 253 259 266 271 265 257 255 256 258 261 262 264 266 264 264 271 276 278 277 272 273 275 287 283 238 238 234 224 212 213 203 209 207 208 197 171 156 136 123 119 118 110 94 75 65 72 83 81 85 94 95 82 73 73 58 70 39 27 20 357 39 345 330 321 313 304 326 303 277 263 261 260 256 248 244 245 250 248
233 256 282 277 282 276 279 285 282 274 275 267 263 260 258 260 264 260 261 258 260 262 266 269 274 274 275 285 284 284 279 264 265 244 236 238 230 223 218 217 225 223 219 186 160 147 135 128 118 110 103 98 88 81 77 54 82 87 87 83 70 81 44 41 9 5 348 342 345 327 304 300 305 302 290 304 300 291 282 277 276 269 269 257 242 244
199 274 280 276 274 269 269 272 273 275 267 264 263 262 259 259 259 259 262 268 274 274 277 283 276 272 278 269 260 257 257 259 249 245 237 237 228 230 229 228 228 219 215 201 178 166 151 134 122 105 95 92 94 101 94 78 350 91 63 73 11 38 26 26 332 332 321 321 321 313 317 316 308 297 303 295 287 289 291 295 290 279 264 261 254 242
245 264 268 269 267 268 271 274 276 279 293 284 266 268 275 271 272 272 268 267 260 265 267 265 271 284 280 275 290 289 276 273 264 262 260 244 244 238 232 229 224 211 210 207 196 167 147 134 118 107 95 114 85 63 56 32 34 57 28 34 28 60 343 321 333 326 325 312 314 319 315 310 303 302 298 296 296 303 296 277 272 272 273 263 256 256
260 263 267 275 269 273 278 277 281 268 253 256 10 333 290 269 261 257 258 261 268 266 270 280 278 294 315 315 289 283 287 286 302 314 317 293 253 242 245 239 235 215 202 200 183 164 144 124 104 92 82 39 80 33 360 324 7 49 174 255 334 328 317 318 302 296 304 305 301 304 303 294 295 294 292 290 286 283 282 277 273 273 264 264 259 248
262 267 267 264 267 271 277 274 265 256 252 270 275 293 339 303 309 291 285 278 277 276 290 294 290 284 276 289 310 309 289 275 287 272 268 266 276 269 251 247 228 204 189 189 179 123 105 107 116 118 145 264 23 313 259 245 50 287 282 208 266 292 295 286 299 301 295 293 298 298 293 289 293 294 296 295 290 284 279 280 276 270 266 259 250 247
250 251 262 259 264 270 263 253 252 252 285 257 249 200 210 287 261 272 272 266 260 291 301 292 287 299 296 285 290 303 305 298 283 270 279 273 243 243 245 239 227 195 196 192 163 113 279 309 347 285 304 1 274 281 296 307 296 277 274 291 273 265 266 283 289 288 290 296 295 290 289 285 285 287 285 284 283 281 283 281 276 269 266 264 260 253
252 260 253 263 250 258 257 255 258 283 272 232 224 291 303 264 307 314 287 296 8 290 325 316 297 279 303 299 296 275 298 304 271 257 57 39 28 354 334 350 10 221 227 249 234 203 175 263 250 265 310 277 299 295 294 305 299 288 281 277 281 280 281 282 281 283 286 280 282 284 286 284 278 276 280 281 280 278 277 278 279 274 266 264 258 254
241 244 246 252 248 249 262 263 259 251 251 252 66 95 47 35 3 346 296 284 193 256 345 319 309 297 273 278 283 310 314 289 274 233 128 98 103 56 0 30 134 248 188 173 360 303 261 240 287 279 281 286 279 278 274 268 263 266 269 267 266 270 267 269 275 281 284 286 286 286 279 277 280 282 281 282 280 283 282 278 277 275 266 260 263 257
251 245 249 248 258 246 247 254 255 263 276 62 97 76 54 31 24 316 281 266 65 337 34 334 326 301 301 319 309 298 284 279 280 9 24 258 161 197 259 262 276 332 327 279 264 277 288 295 299 299 291 277 271 271 278 276 275 272 267 262 258 257 264 270 276 275 277 283 288 286 285 282 284 284 282 280 281 281 279 275 272 272 268 262 257 259
241 237 239 242 245 250 255 251 253 242 265 104 40 6 46 354 14 287 284 277 79 329 345 324 334 320 319 317 320 302 287 283 340 144 337 321 284 309 279 280 279 272 272 287 282 276 302 309 287 274 273 272 274 276 271 271 267 266 267 267 266 261 261 266 268 272 275 276 277 278 276 274 271 272 273 276 278 277 275 275 273 269 267 269 265 263
239 232 230 244 247 247 243 254 262 253 85 40 76 28 2 346 307 271 258 352 56 295 312 298 297 301 312 307 299 290 298 292 304 327 282 240 257 267 271 273 276 276 285 295 299 325 296 287 285 286 285 284 283 279 271 267 268 265 262 262 263 263 262 264 267 268 272 275 275 274 274 274 274 274 275 276 276 274 273 270 268 265 261 261 259 265
235 236 251 249 248 247 252 257 250 268 37 322 15 307 287 267 249 256 22 301 289 309 312 312 310 305 292 288 292 291 292 298 294 284 286 294 288 284 282 282 279 281 287 290 293 287 281 279 281 280 276 271 268 268 266 264 262 263 264 262 260 263 267 266 268 269 271 271 269 268 269 269 268 270 272 276 275 273 267 265 263 262 259 254 252 247
283 266 247 240 245 255 256 263 263 255 72 348 359 290 298 259 292 9 314 309 313 301 303 299 294 295 295 291 291 289 292 292 287 290 296 294 285 280 279 282 282 283 285 288 288 283 283 281 279 279 280 278 275 274 273 272 268 267 267 264 265 267 267 269 268 268 270 270 272 272 270 268 265 262 261 262 262 261 261 259 260 257 249 256 231 162
300 281 259 252 248 261 254 246 266 27 131 335 353 309 338 320 325 317 312 295 304 302 298 298 292 294 301 295 290 297 300 296 287 284 280 277 278 281 279 277 283 286 288 289 291 294 293 289 285 282 279 277 275 273 272 270 270 269 269 269 273 272 271 270 268 267 268 267 269 271 268 266 263 260 257 258 258 258 253 250 252 259 250 228 201 197
218 263 302 295 340 293 280 286 309 282 307 304 292 292 285 297 297 296 290 286 292 296 295 289 293 292 293 299 301 295 287 282 289 293 288 281 280 281 282 283 281 283 283 281 279 285 289 285 284 283 282 282 281 279 274 271 270 270 267 268 267 266 265 263 262 261 260 263 264 263 262 261 261 262 263 264 263 264 261 258 253 236 177 208 194 178
109 258 280 277 277 277 271 274 288 290 291 304 311 301 297 291 291 291 291 292 287 284 288 290 293 297 294 290 287 283 284 294 291 285 283 288 286 283 283 286 284 284 283 284 286 284 283 286 289 287 284 282 280 278 277 274 271 269 267 265 262 263 263 262 260 260 261 262 262 261 263 264 263 262 262 262 263 266 269 274 169 217 211 203 205 198
17 18 311 275 283 288 275 283 277 290 292 282 289 291 288 289 290 293 290 288 294 300 298 298 294 292 290 288 283 283 282 281 280 277 277 275 275 277 279 276 276 274 279 284 285 290 288 284 282 283 284 283 282 279 277 276 272 271 272 268 265 262 263 265 260 258 257 257 260 262 263 266 266 266 263 263 261 261 255 201 205 208 207 201 199 185
190 61 302 265 269 264 274 287 294 292 289 290 291 294 294 294 295 297 303 301 296 292 290 289 289 285 285 284 286 285 284 280 279 281 279 278 279 282 279 279 282 287 284 284 288 287 285 286 286 286 284 282 283 283 283 280 276 274 272 270 265 263 261 257 258 259 257 256 256 259 259 257 258 263 266 263 257 241 211 195 195 190 178 193 186 174
313 304 281 300 288 288 290 285 284 297 300 295 289 290 301 312 313 309 304 301 300 298 294 291 290 292 293 292 290 288 288 285 282 281 281 283 281 277 279 284 287 288 291 288 286 288 287 286 285 285 286 286 286 283 279 276 274 270 269 269 269 266 262 261 258 254 254 254 256 255 253 257 262 258 252 232 117 70 41 251 197 165 177 167 183 172
256 260 296 305 283 278 286 302 329 310 300 300 302 306 310 309 302 301 299 294 292 291 293 295 292 290 288 284 285 283 281 282 281 279 279 280 282 288 290 288 286 286 285 286 288 287 286 286 287 290 290 290 290 288 285 282 277 275 271 269 268 266 264 259 253 248 247 248 250 250 249 248 251 252 215 132 118 99 75 40 41 70 131 101 92 81
291 317 317 288 296 295 307 313 313 304 296 291 301 306 305 304 305 307 306 306 305 305 305 303 303 303 300 298 294 291 288 285 286 285 282 282 283 284 283 286 289 290 290 294 295 294 295 296 295 291 289 288 289 287 285 282 281 277 272 268 264 262 259 256 252 250 247 242 244 246 248 238 14 87 135 145 143 125 109 92 49 35 54 94 91 85